TimeMST,TemperatureF,Dew PointF,Humidity,Sea Level PressureIn,VisibilityMPH,Wind Direction,Wind SpeedMPH,Gust SpeedMPH,PrecipitationIn,Events,Conditions,WindDirDegrees,DateUTC
12:53 AM,18.0,12.0,78,29.93,10.0,South,6.9,-,N/A,,Clear,180,2013-02-06 07:53:00
1:53 AM,17.1,10.9,77,29.91,10.0,South,4.6,-,N/A,,Clear,190,2013-02-06 08:53:00
2:53 AM,16.0,10.9,81,29.90,10.0,Calm,Calm,-,N/A,,Clear,0,2013-02-06 09:53:00
3:53 AM,12.9,9.0,84,29.93,10.0,Calm,Calm,-,N/A,,Clear,0,2013-02-06 10:53:00
6:53 AM,15.1,9.0,77,29.96,10.0,South,6.9,-,N/A,,Clear,190,2013-02-06 13:53:00
7:53 AM,17.1,10.9,77,30.01,10.0,South,4.6,-,N/A,,Clear,170,2013-02-06 14:53:00
8:53 AM,24.1,15.1,69,29.97,10.0,Calm,Calm,-,N/A,,Clear,0,2013-02-06 15:53:00
9:53 AM,30.0,16.0,56,29.92,10.0,South,3.5,-,N/A,,Partly Cloudy,170,2013-02-06 16:53:00
10:53 AM,36.0,18.0,48,29.90,10.0,SSW,3.5,-,N/A,,Mostly Cloudy,200,2013-02-06 17:53:00
11:53 AM,37.9,19.0,47,29.87,10.0,North,8.1,-,N/A,,Mostly Cloudy,360,2013-02-06 18:53:00
12:53 PM,37.9,19.0,47,29.88,10.0,NNW,12.7,20.7,N/A,,Overcast,340,2013-02-06 19:53:00
1:53 PM,36.0,23.0,59,29.91,10.0,North,4.6,-,N/A,,Overcast,360,2013-02-06 20:53:00
2:44 PM,33.8,26.6,75,29.94,2.5,Calm,Calm,-,0.00,Snow,Light Snow,0,2013-02-06 21:44:00
2:53 PM,33.1,27.0,78,29.94,2.0,Calm,Calm,-,0.00,Snow,Light Snow,0,2013-02-06 21:53:00
2:55 PM,33.8,26.6,75,29.94,2.0,Calm,Calm,-,0.00,Snow,Light Snow,0,2013-02-06 21:55:00
3:03 PM,32.0,28.4,87,29.95,0.8,Calm,Calm,-,0.00,Snow,Light Snow,0,2013-02-06 22:03:00
3:06 PM,32.0,28.4,87,29.95,2.0,Calm,Calm,-,0.00,Snow,Light Snow,0,2013-02-06 22:06:00
3:31 PM,32.0,28.4,87,29.95,3.0,Calm,Calm,-,0.00,Snow,Light Snow,0,2013-02-06 22:31:00
3:53 PM,32.0,28.0,85,29.97,6.0,Calm,Calm,-,0.00,,Overcast,0,2013-02-06 22:53:00
4:12 PM,33.8,28.4,81,29.95,2.0,North,3.5,-,0.00,Snow,Light Snow,360,2013-02-06 23:12:00
4:41 PM,32.0,28.4,87,29.96,3.0,North,4.6,-,0.00,Snow,Light Snow,10,2013-02-06 23:41:00
4:53 PM,32.0,28.9,88,29.95,2.0,North,3.5,-,0.00,Snow,Light Snow,10,2013-02-06 23:53:00
5:53 PM,30.0,28.9,96,29.99,2.0,Calm,Calm,-,0.01,Snow,Light Snow,0,2013-02-07 00:53:00
6:03 PM,30.2,28.4,93,29.98,3.0,Calm,Calm,-,0.00,Snow,Light Snow,0,2013-02-07 01:03:00
6:35 PM,30.2,28.4,93,29.99,2.0,North,3.5,-,0.01,Snow,Light Snow,350,2013-02-07 01:35:00
6:53 PM,30.0,28.9,96,30.01,2.0,Calm,Calm,-,0.02,Snow,Light Snow,0,2013-02-07 01:53:00
7:40 PM,30.2,28.4,93,30.01,4.0,North,5.8,-,0.02,Snow,Light Snow,360,2013-02-07 02:40:00
7:53 PM,28.9,27.0,92,30.03,9.0,NNW,10.4,-,0.02,,Mostly Cloudy,330,2013-02-07 02:53:00
8:53 PM,30.0,26.1,85,30.02,10.0,NW,9.2,-,0.00,,Overcast,320,2013-02-07 03:53:00
9:38 PM,28.4,26.6,93,30.05,10.0,North,9.2,-,N/A,,Mostly Cloudy,360,2013-02-07 04:38:00
9:53 PM,28.9,26.1,89,30.01,10.0,NNW,10.4,-,N/A,,Mostly Cloudy,340,2013-02-07 04:53:00
10:00 PM,28.4,26.6,93,30.06,10.0,NNW,11.5,-,0.00,Snow,Light Snow,330,2013-02-07 05:00:00
10:20 PM,28.4,26.6,93,30.06,1.8,North,5.8,-,0.01,Snow,Light Snow,360,2013-02-07 05:20:00
10:37 PM,28.4,26.6,93,30.07,3.0,Calm,Calm,-,0.01,Snow,Light Snow,0,2013-02-07 05:37:00
10:50 PM,28.4,26.6,93,30.07,9.0,NNE,3.5,-,0.01,,Overcast,20,2013-02-07 05:50:00
10:53 PM,28.9,26.1,89,29.99,10.0,North,3.5,-,0.01,,Overcast,360,2013-02-07 05:53:00
11:10 PM,28.4,24.8,86,30.08,10.0,NNW,5.8,-,N/A,,Overcast,330,2013-02-07 06:10:00
11:17 PM,28.4,24.8,86,30.08,10.0,NNW,6.9,-,N/A,,Overcast,340,2013-02-07 06:17:00
11:30 PM,28.4,24.8,86,30.08,10.0,North,4.6,-,N/A,,Overcast,360,2013-02-07 06:30:00
11:53 PM,26.1,24.1,92,30.02,10.0,NNW,3.5,-,N/A,,Overcast,330,2013-02-07 06:53:00